Heubes-Wetterstation in 44289 Dortmund
Heubes-Wetterstation

Messwerte der letzten 60 Minuten im Minuten-Intervall (Wetterstation 44289 Dortmund)

Datum & Uhrzeit Temp. Feucht. Wind-Ø Böen Sekt.  Regen Rate Luftdruck
31.07.2021 - 20:2318.6 °C75%0 km/h 0 km/h SW0.0 mm 0.0 mm 1008.2 hPa, gleichbleibend
31.07.2021 - 20:2218.6 °C75%0 km/h 0 km/h SW0.0 mm 0.0 mm 1008.2 hPa, gleichbleibend
31.07.2021 - 20:2118.6 °C75%0 km/h 0 km/h SW0.0 mm 0.0 mm 1008.2 hPa, gleichbleibend
31.07.2021 - 20:2018.6 °C75%0 km/h 0 km/h SW0.0 mm 0.0 mm 1008.2 hPa, gleichbleibend
31.07.2021 - 20:1918.5 °C75%0 km/h 0 km/h SW0.0 mm 0.0 mm 1008.2 hPa, gleichbleibend
31.07.2021 - 20:1818.5 °C75%0 km/h 0 km/h SW0.0 mm 0.0 mm 1008.2 hPa, gleichbleibend
31.07.2021 - 20:1718.5 °C75%0 km/h 0 km/h SW0.0 mm 0.0 mm 1008.2 hPa, gleichbleibend
31.07.2021 - 20:1618.5 °C75%0 km/h 0 km/h SW0.0 mm 0.0 mm 1008.2 hPa, gleichbleibend
31.07.2021 - 20:1518.5 °C75%0 km/h 0 km/h SW0.0 mm 0.0 mm 1008.2 hPa, gleichbleibend
31.07.2021 - 20:1418.5 °C74%0 km/h 1 km/h SW0.0 mm 0.0 mm 1008.2 hPa, gleichbleibend
31.07.2021 - 20:1318.4 °C74%0 km/h 3 km/h SW0.0 mm 0.0 mm 1008.2 hPa, langsam steigend
31.07.2021 - 20:1218.5 °C74%0 km/h 0 km/h SW0.0 mm 0.0 mm 1008.1 hPa, gleichbleibend
31.07.2021 - 20:1118.4 °C74%0 km/h 0 km/h SW0.0 mm 0.0 mm 1008.1 hPa, gleichbleibend
31.07.2021 - 20:1018.4 °C74%0 km/h 0 km/h SW0.0 mm 0.0 mm 1008.1 hPa, gleichbleibend
31.07.2021 - 20:0918.4 °C74%0 km/h 0 km/h SW0.0 mm 0.0 mm 1008.1 hPa, gleichbleibend
31.07.2021 - 20:0818.4 °C74%0 km/h 0 km/h SW0.0 mm 0.0 mm 1008.1 hPa, gleichbleibend
31.07.2021 - 20:0718.4 °C74%0 km/h 3 km/h W-SW0.0 mm 0.0 mm 1008.1 hPa, gleichbleibend
31.07.2021 - 20:0618.4 °C74%0 km/h 7 km/h W-SW0.0 mm 0.0 mm 1008.1 hPa, gleichbleibend
31.07.2021 - 20:0518.6 °C74%0 km/h 5 km/h SW0.0 mm 0.0 mm 1008.1 hPa, gleichbleibend
31.07.2021 - 20:0418.6 °C74%0 km/h 1 km/h SW0.0 mm 0.0 mm 1008.1 hPa, gleichbleibend
31.07.2021 - 20:0318.6 °C74%0 km/h 3 km/h SW0.0 mm 0.0 mm 1008.1 hPa, gleichbleibend
31.07.2021 - 20:0218.6 °C74%0 km/h 1 km/h W-SW0.0 mm 0.0 mm 1008.1 hPa, gleichbleibend
31.07.2021 - 20:0118.7 °C73%1 km/h 5 km/h W-SW0.0 mm 0.0 mm 1008.1 hPa, gleichbleibend
31.07.2021 - 20:0018.7 °C73%1 km/h 0 km/h SW0.0 mm 0.0 mm 1008.1 hPa, gleichbleibend
31.07.2021 - 19:5918.7 °C73%1 km/h 0 km/h SW0.0 mm 0.0 mm 1008.1 hPa, gleichbleibend
31.07.2021 - 19:5818.7 °C73.5%1 km/h 0 km/h SW0.0 mm 0.0 mm 1008.1 hPa, gleichbleibend
31.07.2021 - 19:5718.7 °C73%1 km/h 0 km/h SW0.0 mm 0.0 mm 1008.1 hPa, gleichbleibend
31.07.2021 - 19:5618.8 °C73%2 km/h 1 km/h SW0.0 mm 0.0 mm 1008.1 hPa, gleichbleibend
31.07.2021 - 19:5518.8 °C73%3 km/h 5 km/h SW0.0 mm 0.0 mm 1008.1 hPa, langsam fallend
31.07.2021 - 19:5418.8 °C73%3 km/h 11 km/h SW0.0 mm 0.0 mm 1008.2 hPa, langsam steigend
31.07.2021 - 19:5318.8 °C73%3 km/h 5 km/h W-SW0.0 mm 0.0 mm 1008.1 hPa, gleichbleibend
31.07.2021 - 19:5218.8 °C73%3 km/h 3 km/h S0.0 mm 0.0 mm 1008.1 hPa, langsam fallend
31.07.2021 - 19:5118.9 °C73%3 km/h 14 km/h W-SW0.0 mm 0.0 mm 1008.2 hPa, gleichbleibend
31.07.2021 - 19:5018.9 °C73%3 km/h 5 km/h S-SW0.0 mm 0.0 mm 1008.2 hPa, langsam steigend
31.07.2021 - 19:4918.9 °C73%3 km/h 1 km/h SW0.0 mm 0.0 mm 1008.1 hPa, gleichbleibend
31.07.2021 - 19:4819.0 °C72.5%3 km/h 3 km/h SW0.0 mm 0.0 mm 1008.1 hPa, gleichbleibend
31.07.2021 - 19:4719.1 °C72%3 km/h 3 km/h SW0.0 mm 0.0 mm 1008.1 hPa, gleichbleibend
31.07.2021 - 19:4619.1 °C72%3 km/h 11 km/h SW0.0 mm 0.0 mm 1008.1 hPa, gleichbleibend
31.07.2021 - 19:4519.2 °C72%3 km/h 16 km/h SW0.0 mm 0.0 mm 1008.1 hPa, langsam steigend
31.07.2021 - 19:4419.2 °C71%3 km/h 3 km/h W-SW0.0 mm 0.0 mm 1008.0 hPa, langsam fallend
31.07.2021 - 19:4319.2 °C71%3 km/h 13 km/h W-SW0.0 mm 0.0 mm 1008.1 hPa, gleichbleibend
31.07.2021 - 19:4219.3 °C71%4 km/h 3 km/h SW0.0 mm 0.0 mm 1008.1 hPa, gleichbleibend
31.07.2021 - 19:4119.3 °C71%5 km/h 1 km/h SW0.0 mm 0.0 mm 1008.1 hPa, gleichbleibend
31.07.2021 - 19:4019.3 °C72%5 km/h 14 km/h SW0.0 mm 0.0 mm 1008.1 hPa, gleichbleibend
31.07.2021 - 19:3919.3 °C72%4 km/h 7 km/h W-SW0.0 mm 0.0 mm 1008.1 hPa, gleichbleibend
31.07.2021 - 19:3819.4 °C72%3 km/h 14 km/h W-SW0.0 mm 0.0 mm 1008.1 hPa, gleichbleibend
31.07.2021 - 19:3719.4 °C71%3 km/h 8 km/h S-SW0.0 mm 0.0 mm 1008.1 hPa, gleichbleibend
31.07.2021 - 19:3619.4 °C71%3 km/h 13 km/h SW0.0 mm 0.0 mm 1008.1 hPa, gleichbleibend
31.07.2021 - 19:3519.4 °C71%3 km/h 14 km/h W-SW0.0 mm 0.0 mm 1008.1 hPa, gleichbleibend
31.07.2021 - 19:3419.5 °C71%3 km/h 1 km/h W0.0 mm 0.0 mm 1008.1 hPa, langsam steigend
31.07.2021 - 19:3319.6 °C71%3 km/h 5 km/h S0.0 mm 0.0 mm 1008.0 hPa, gleichbleibend
31.07.2021 - 19:3219.6 °C71%3 km/h 16 km/h S-SW0.0 mm 0.0 mm 1008.0 hPa, gleichbleibend
31.07.2021 - 19:3119.6 °C72%1 km/h 16 km/h SW0.0 mm 0.0 mm 1008.0 hPa, gleichbleibend
31.07.2021 - 19:3019.6 °C72%1 km/h 7 km/h S-SW0.0 mm 0.0 mm 1008.0 hPa, gleichbleibend
31.07.2021 - 19:2919.6 °C71%2 km/h 0 km/h SW0.0 mm 0.0 mm 1008.0 hPa, gleichbleibend
31.07.2021 - 19:2819.6 °C72%3 km/h 5 km/h SW0.0 mm 0.0 mm 1008.0 hPa, gleichbleibend
31.07.2021 - 19:2719.6 °C72%4 km/h 5 km/h S-SW0.0 mm 0.0 mm 1008.0 hPa, gleichbleibend
31.07.2021 - 19:2619.6 °C71.4%5 km/h 7 km/h W0.0 mm 0.0 mm 1008.0 hPa, gleichbleibend
31.07.2021 - 19:2519.6 °C72%5 km/h 5 km/h SW0.0 mm 0.0 mm 1008.0 hPa, langsam fallend
31.07.2021 - 19:2419.7 °C71.5%5 km/h 5 km/h SW0.0 mm 0.0 mm 1008.1 hPa, gleichbleibend